Location: Unspecified
(0.0000°N, 0.0000°E)
Time: 06:43:02
(UTC+01:00)

ATLAS 2AS CENTAUR R/B - Visible Passes

Search period start: 06 December 2016 00:00
Search period end: 16 December 2016 00:00
Orbit: 906 x 1306 km, 63.7° (Epoch: 01 December)

Date Brightness Start Highest point End Pass type
(mag) Time Alt. Az. Time Alt. Az. Time Alt. Az.
06 Dec 2.9 19:34:38 10° N 19:41:46 50° ENE 19:48:14 10° SE visible
06 Dec 5.2 21:27:55 10° WNW 21:32:14 17° WSW 21:36:22 10° SSW visible
07 Dec 4.3 20:41:14 10° NW 20:47:35 33° WSW 20:53:28 10° S visible
08 Dec 3.2 19:55:42 10° NNW 20:02:57 63° WSW 20:09:31 10° SSE visible
09 Dec 2.8 19:10:53 10° NNW 19:18:15 72° ENE 19:24:55 10° SSE visible
09 Dec 5.8 21:07:28 10° WSW 21:08:41 10° WSW 21:09:53 10° WSW visible
10 Dec 5.1 20:18:39 10° WNW 20:24:00 23° WSW 20:29:02 10° SSW visible
11 Dec 5.1 06:04:02 10° SSE 06:09:28 26° ESE 06:15:17 10° ENE visible
11 Dec 4.1 19:32:33 10° NW 19:39:22 43° WSW 19:45:36 10° S visible
12 Dec 5.9 05:21:56 10° SE 05:24:48 13° ESE 05:27:47 10° E visible
13 Dec 3.1 06:23:53 10° SSW 06:30:32 73° ESE 06:37:54 10° NNE visible
13 Dec 5.9 19:56:44 10° W 20:00:26 15° WSW 20:03:59 10° SW visible
14 Dec 4.2 05:39:46 10° S 05:45:53 39° ESE 05:52:32 10° NE visible
15 Dec 5.2 04:56:32 10° SSE 05:01:15 20° ESE 05:06:13 10° ENE visible
